Regional Weather Roundup
Issued by NWS

Home | Current Version | Previous Version | Graphics & Text | Print | Product List | Glossary Off
Versions: 1 2 3 4 5 6 7 8 9 10 11 12 13 14 15 16 17 18 19 20 21 22 23 24 25 26 27 28 29 30 31 32 33 34 35 36 37 38 39 40 41 42 43 44 45 46 47 48 49 50

000
ASUS43 KTOP 250059
RWRKS

WEATHER ROUNDUP FOR KANSAS
NATIONAL WEATHER SERVICE GOODLAND KS
800 PM CDT SAT JUN 24 2017

NOTE:  "FAIR" INDICATES FEW OR NO CLOUDS BELOW 12,000 FEET WITH NO
SIGNIFICANT WEATHER AND/OR OBSTRUCTIONS TO VISIBILITY.

KSZ001>006-013>018-027>032-041>047-250200-
NORTHWEST KANSAS

CITY           SKY/WX    TMP DP  RH WIND       PRES   REMARKS
GOODLAND       PTSUNNY   72  53  51 SE5       30.23R
HAYS           CLOUDY    74  55  51 NE8       30.20R
HILL CITY      CLOUDY    73  50  44 E9        30.22R
RUSSELL        CLOUDY    75  51  43 NE8       30.18R
$$

KSZ061>065-074>080-084>089-250200-
SOUTHWEST KANSAS

CITY           SKY/WX    TMP DP  RH WIND       PRES   REMARKS
DODGE CITY     CLOUDY    76  53  44 SE6       30.20S
ELKHART          N/A     72  49  44 S9          N/A
GARDEN CITY    MOSUNNY   77  49  37 SE7       30.20S
GREAT BEND     CLOUDY    80  52  37 NE5       30.19R
LIBERAL        MOSUNNY   77  54  44 S9        30.19S
$$

KSZ066>073-081>083-090>101-250200-
SOUTHEAST KANSAS

CITY           SKY/WX    TMP DP  RH WIND       PRES   REMARKS
CHANUTE        CLEAR     78  45  30 NE9       30.18R
COFFEYVILLE    CLEAR     79  50  36 NE9       30.16R
HUTCHINSON     PTCLDY    79  55  43 CALM      30.17R
MEDICINE LODGE   N/A     82  50  32 CALM      30.17R
NEWTON         CLEAR     78  49  35 NE6       30.19R
PARSONS        CLEAR     77  48  35 CALM      30.18R
WICHITA INTL   CLEAR     78  54  43 E12       30.16R
WICHITA JABRA  CLEAR     75  54  47 E8        30.17R
WINFIELD       CLEAR     80  51  36 E8        30.18R
$$

KSZ007>012-019>026-033>040-048>060-102>105-250200-
NORTHEAST KANSAS

CITY           SKY/WX    TMP DP  RH WIND       PRES   REMARKS
CONCORDIA      CLOUDY    73  45  36 NW5       30.19R
EMPORIA        CLEAR     77  51  40 CALM      30.18R
LAWRENCE       CLOUDY    73  51  46 NW6       30.16S
MANHATTAN      CLOUDY    75  53  46 CALM      30.17S
OLATHE IND     CLEAR     73  47  39 NW6       30.18R
OLATHE EXE     CLEAR     74  45  35 NW6       30.17S
SALINA         CLOUDY    80  42  25 NE9       30.18R
TOPEKA BILLARD MOCLDY    77  47  34 NW3       30.16S
TOPEKA FORBES  CLOUDY    77  48  35 N5        30.17S
$$




USA.gov is the U.S. government's official web portal to all federal, state and local government web resources and services.